����������;��������(kWh)
2015-08-31 00:00;105,5
2015-08-31 00:15;94,35
2015-08-31 00:30;90,45
2015-08-31 00:45;83,4
2015-08-31 01:00;82,35
2015-08-31 01:15;83
2015-08-31 01:30;81,55
2015-08-31 01:45;81,45
2015-08-31 02:00;81,65
2015-08-31 02:15;82,85
2015-08-31 02:30;84,15
2015-08-31 02:45;82,3
2015-08-31 03:00;81
2015-08-31 03:15;80,5
2015-08-31 03:30;80,3
2015-08-31 03:45;80,45
2015-08-31 04:00;80,4
2015-08-31 04:15;82,9
2015-08-31 04:30;90,55
2015-08-31 04:45;90,2
2015-08-31 05:00;92,25
2015-08-31 05:15;89,5
2015-08-31 05:30;89,45
2015-08-31 05:45;88,2
2015-08-31 06:00;91,1
2015-08-31 06:15;95,6
2015-08-31 06:30;104,6
2015-08-31 06:45;103,05
2015-08-31 07:00;99,35
2015-08-31 07:15;101,85
2015-08-31 07:30;102,9
2015-08-31 07:45;132,2
2015-08-31 08:00;205,35
2015-08-31 08:15;199,5
2015-08-31 08:30;190,2
2015-08-31 08:45;160,4
2015-08-31 09:00;141,75
2015-08-31 09:15;157,1
2015-08-31 09:30;160,85
2015-08-31 09:45;185,25
2015-08-31 10:00;177,25
2015-08-31 10:15;174,75
2015-08-31 10:30;178,15
2015-08-31 10:45;188,05
2015-08-31 11:00;203,45
2015-08-31 11:15;201,6
2015-08-31 11:30;204,65
2015-08-31 11:45;213,35
2015-08-31 12:00;218,05
2015-08-31 12:15;219,1
2015-08-31 12:30;224,1
2015-08-31 12:45;220,75
2015-08-31 13:00;231,5
2015-08-31 13:15;228,05
2015-08-31 13:30;220,9
2015-08-31 13:45;233,65
2015-08-31 14:00;224,1
2015-08-31 14:15;218,25
2015-08-31 14:30;219,05
2015-08-31 14:45;215,2
2015-08-31 15:00;213,1
2015-08-31 15:15;204,4
2015-08-31 15:30;196,5
2015-08-31 15:45;197,85
2015-08-31 16:00;194,65
2015-08-31 16:15;186,05
2015-08-31 16:30;178,8
2015-08-31 16:45;183
2015-08-31 17:00;180,4
2015-08-31 17:15;174,85
2015-08-31 17:30;166,15
2015-08-31 17:45;163,65
2015-08-31 18:00;224,05
2015-08-31 18:15;220,1
2015-08-31 18:30;207,65
2015-08-31 18:45;169,1
2015-08-31 19:00;151,3
2015-08-31 19:15;147,8
2015-08-31 19:30;142,45
2015-08-31 19:45;137,45
2015-08-31 20:00;134
2015-08-31 20:15;128,3
2015-08-31 20:30;131,6
2015-08-31 20:45;121,7
2015-08-31 21:00;122,25
2015-08-31 21:15;114,75
2015-08-31 21:30;120,4
2015-08-31 21:45;117
2015-08-31 22:00;110,5
2015-08-31 22:15;97,75
2015-08-31 22:30;91,25
2015-08-31 22:45;91,35
2015-08-31 23:00;94,85
2015-08-31 23:15;94,8
2015-08-31 23:30;90,5
2015-08-31 23:45;91,2
2015-09-01 00:00;95,85
2015-09-01 00:15;84,15
2015-09-01 00:30;85,7
2015-09-01 00:45;85,4
2015-09-01 01:00;86,3
2015-09-01 01:15;87,15
2015-09-01 01:30;83,1
2015-09-01 01:45;82,45
2015-09-01 02:00;82,4
2015-09-01 02:15;79,55
2015-09-01 02:30;81,85
2015-09-01 02:45;82,5
2015-09-01 03:00;81,3
2015-09-01 03:15;80,25
2015-09-01 03:30;78,7
2015-09-01 03:45;82
2015-09-01 04:00;84,05
2015-09-01 04:15;86,8
2015-09-01 04:30;85,95
2015-09-01 04:45;82,65
2015-09-01 05:00;80,35
2015-09-01 05:15;78,25
2015-09-01 05:30;79
2015-09-01 05:45;77,85
2015-09-01 06:00;82
2015-09-01 06:15;79,85
2015-09-01 06:30;84,45
2015-09-01 06:45;87,3
2015-09-01 07:00;81,85
2015-09-01 07:15;87
2015-09-01 07:30;86,55
2015-09-01 07:45;121,25
2015-09-01 08:00;186,6
2015-09-01 08:15;190
2015-09-01 08:30;179,35
2015-09-01 08:45;158,1
2015-09-01 09:00;158,2
2015-09-01 09:15;158,1
2015-09-01 09:30;168,75
2015-09-01 09:45;174,15
2015-09-01 10:00;179,2
2015-09-01 10:15;183,15
2015-09-01 10:30;183,55
2015-09-01 10:45;189,25
2015-09-01 11:00;195,7
2015-09-01 11:15;195,8
2015-09-01 11:30;220,05
2015-09-01 11:45;226,85
2015-09-01 12:00;254,25
2015-09-01 12:15;281,1
2015-09-01 12:30;278,45
2015-09-01 12:45;263,2
2015-09-01 13:00;246,85
2015-09-01 13:15;234,75
2015-09-01 13:30;231,1
2015-09-01 13:45;229,35
2015-09-01 14:00;221,35
2015-09-01 14:15;251,9
2015-09-01 14:30;283,8
2015-09-01 14:45;262
2015-09-01 15:00;239,15
2015-09-01 15:15;209,75
2015-09-01 15:30;204,3
2015-09-01 15:45;201,8
2015-09-01 16:00;190,7
2015-09-01 16:15;178,25
2015-09-01 16:30;172,25
2015-09-01 16:45;169,8
2015-09-01 17:00;167,1
2015-09-01 17:15;165,45
2015-09-01 17:30;164,75
2015-09-01 17:45;159,95
2015-09-01 18:00;155,75
2015-09-01 18:15;154,3
2015-09-01 18:30;148,8
2015-09-01 18:45;145,9
2015-09-01 19:00;147,3
2015-09-01 19:15;145,75
2015-09-01 19:30;143,9
2015-09-01 19:45;142,2
2015-09-01 20:00;135,2
2015-09-01 20:15;127,85
2015-09-01 20:30;125,5
2015-09-01 20:45;114,25
2015-09-01 21:00;112,85
2015-09-01 21:15;103,95
2015-09-01 21:30;103,3
2015-09-01 21:45;104,75
2015-09-01 22:00;103,5
2015-09-01 22:15;103,35
2015-09-01 22:30;95,8
2015-09-01 22:45;87,25
2015-09-01 23:00;81,5
2015-09-01 23:15;83,4
2015-09-01 23:30;81
2015-09-01 23:45;83,4
2015-09-02 00:00;86,95
2015-09-02 00:15;75,15
2015-09-02 00:30;77,8
2015-09-02 00:45;76,45
2015-09-02 01:00;76,45
2015-09-02 01:15;77,35
2015-09-02 01:30;75,25
2015-09-02 01:45;71,7
2015-09-02 02:00;70,9
2015-09-02 02:15;71,5
2015-09-02 02:30;71,1
2015-09-02 02:45;70,65
2015-09-02 03:00;70,85
2015-09-02 03:15;71,95
2015-09-02 03:30;69,55
2015-09-02 03:45;68,8
2015-09-02 04:00;69,3
2015-09-02 04:15;69,3
2015-09-02 04:30;69
2015-09-02 04:45;68,5
2015-09-02 05:00;73,4
2015-09-02 05:15;78,95
2015-09-02 05:30;79,55
2015-09-02 05:45;77,3
2015-09-02 06:00;80,9
2015-09-02 06:15;79
2015-09-02 06:30;82,2
2015-09-02 06:45;85,15
2015-09-02 07:00;82,3
2015-09-02 07:15;87,7
2015-09-02 07:30;86,25
2015-09-02 07:45;125,05
2015-09-02 08:00;130,95
2015-09-02 08:15;124,7
2015-09-02 08:30;124,7
2015-09-02 08:45;136,75
2015-09-02 09:00;142,95
2015-09-02 09:15;202,1
2015-09-02 09:30;203,65
2015-09-02 09:45;213,9
2015-09-02 10:00;208,75
2015-09-02 10:15;204
2015-09-02 10:30;195,7
2015-09-02 10:45;194,75
2015-09-02 11:00;204,8
2015-09-02 11:15;201,6
2015-09-02 11:30;214,75
2015-09-02 11:45;275,5
2015-09-02 12:00;289,5
2015-09-02 12:15;282,75
2015-09-02 12:30;258,55
2015-09-02 12:45;235,6
2015-09-02 13:00;229,7
2015-09-02 13:15;228,3
2015-09-02 13:30;222,3
2015-09-02 13:45;220,15
2015-09-02 14:00;224,25
2015-09-02 14:15;218,45
2015-09-02 14:30;212,65
2015-09-02 14:45;267,45
2015-09-02 15:00;276,7
2015-09-02 15:15;260,65
2015-09-02 15:30;236,8
2015-09-02 15:45;222,5
2015-09-02 16:00;199,9
2015-09-02 16:15;203,6
2015-09-02 16:30;186,3
2015-09-02 16:45;179,15
2015-09-02 17:00;181,15
2015-09-02 17:15;171,75
2015-09-02 17:30;173,3
2015-09-02 17:45;159,85
2015-09-02 18:00;152,5
2015-09-02 18:15;151,15
2015-09-02 18:30;146,95
2015-09-02 18:45;143,5
2015-09-02 19:00;140,2
2015-09-02 19:15;134,6
2015-09-02 19:30;129,65
2015-09-02 19:45;126
2015-09-02 20:00;115,8
2015-09-02 20:15;112,55
2015-09-02 20:30;110,15
2015-09-02 20:45;99,35
2015-09-02 21:00;97,7
2015-09-02 21:15;98,6
2015-09-02 21:30;97,35
2015-09-02 21:45;98,5
2015-09-02 22:00;95,5
2015-09-02 22:15;88,9
2015-09-02 22:30;88,15
2015-09-02 22:45;87,05
2015-09-02 23:00;87,45
2015-09-02 23:15;87,1
2015-09-02 23:30;84,1
2015-09-02 23:45;87,95
2015-09-03 00:00;91,9
2015-09-03 00:15;82,05
2015-09-03 00:30;82,5
2015-09-03 00:45;81,2
2015-09-03 01:00;79,35
2015-09-03 01:15;79,5
2015-09-03 01:30;80,05
2015-09-03 01:45;82,05
2015-09-03 02:00;79,45
2015-09-03 02:15;79,05
2015-09-03 02:30;79,85
2015-09-03 02:45;80,5
2015-09-03 03:00;78,35
2015-09-03 03:15;78,5
2015-09-03 03:30;76,75
2015-09-03 03:45;76,4
2015-09-03 04:00;75,3
2015-09-03 04:15;77,65
2015-09-03 04:30;74,95
2015-09-03 04:45;75,8
2015-09-03 05:00;80,3
2015-09-03 05:15;79,65
2015-09-03 05:30;76,65
2015-09-03 05:45;75,5
2015-09-03 06:00;77,45
2015-09-03 06:15;76,55
2015-09-03 06:30;82,2
2015-09-03 06:45;83,65
2015-09-03 07:00;81,05
2015-09-03 07:15;85,9
2015-09-03 07:30;87,5
2015-09-03 07:45;117,6
2015-09-03 08:00;121,25
2015-09-03 08:15;131,55
2015-09-03 08:30;137,55
2015-09-03 08:45;141,45
2015-09-03 09:00;153,5
2015-09-03 09:15;189,1
2015-09-03 09:30;195
2015-09-03 09:45;197,6
2015-09-03 10:00;206,5
2015-09-03 10:15;271,25
2015-09-03 10:30;273,65
2015-09-03 10:45;284,8
2015-09-03 11:00;278,35
2015-09-03 11:15;259,4
2015-09-03 11:30;263,4
2015-09-03 11:45;276,25
2015-09-03 12:00;288,4
2015-09-03 12:15;267
2015-09-03 12:30;259,15
2015-09-03 12:45;264,1
2015-09-03 13:00;255,5
2015-09-03 13:15;264,15
2015-09-03 13:30;258,15
2015-09-03 13:45;281,35
2015-09-03 14:00;322,1
2015-09-03 14:15;308,55
2015-09-03 14:30;305,85
2015-09-03 14:45;274,45
2015-09-03 15:00;272,2
2015-09-03 15:15;266,4
2015-09-03 15:30;246,05
2015-09-03 15:45;232,5
2015-09-03 16:00;220,8
2015-09-03 16:15;208,8
2015-09-03 16:30;205,6
2015-09-03 16:45;200,4
2015-09-03 17:00;203,3
2015-09-03 17:15;189,5
2015-09-03 17:30;180,3
2015-09-03 17:45;162,15
2015-09-03 18:00;159
2015-09-03 18:15;154
2015-09-03 18:30;151,35
2015-09-03 18:45;146,8
2015-09-03 19:00;146,4
2015-09-03 19:15;139,1
2015-09-03 19:30;136,7
2015-09-03 19:45;133,6
2015-09-03 20:00;130,7
2015-09-03 20:15;118,2
2015-09-03 20:30;115,25
2015-09-03 20:45;103,75
2015-09-03 21:00;104,6
2015-09-03 21:15;97,4
2015-09-03 21:30;97,85
2015-09-03 21:45;96,05
2015-09-03 22:00;100,55
2015-09-03 22:15;99,05
2015-09-03 22:30;101,05
2015-09-03 22:45;94,25
2015-09-03 23:00;96,6
2015-09-03 23:15;92,5
2015-09-03 23:30;90,35
2015-09-03 23:45;95,05
2015-09-04 00:00;96,5
2015-09-04 00:15;91,2
2015-09-04 00:30;88,1
2015-09-04 00:45;87,45
2015-09-04 01:00;85,15
2015-09-04 01:15;85,2
2015-09-04 01:30;86,8
2015-09-04 01:45;86,3
2015-09-04 02:00;88,95
2015-09-04 02:15;86,2
2015-09-04 02:30;85,25
2015-09-04 02:45;83,85
2015-09-04 03:00;85,7
2015-09-04 03:15;86,15
2015-09-04 03:30;86,55
2015-09-04 03:45;87,05
2015-09-04 04:00;84,35
2015-09-04 04:15;85,15
2015-09-04 04:30;84,45
2015-09-04 04:45;87
2015-09-04 05:00;82,4
2015-09-04 05:15;83,5
2015-09-04 05:30;89
2015-09-04 05:45;85,95
2015-09-04 06:00;87,4
2015-09-04 06:15;97,6
2015-09-04 06:30;101,8
2015-09-04 06:45;98,45
2015-09-04 07:00;98,55
2015-09-04 07:15;99,3
2015-09-04 07:30;98,9
2015-09-04 07:45;139,95
2015-09-04 08:00;153,2
2015-09-04 08:15;147,45
2015-09-04 08:30;146,45
2015-09-04 08:45;164,85
2015-09-04 09:00;162,95
2015-09-04 09:15;167,25
2015-09-04 09:30;177,2
2015-09-04 09:45;183,15
2015-09-04 10:00;180,8
2015-09-04 10:15;196
2015-09-04 10:30;201,7
2015-09-04 10:45;206,4
2015-09-04 11:00;220,55
2015-09-04 11:15;232,75
2015-09-04 11:30;234,15
2015-09-04 11:45;238,3
2015-09-04 12:00;224,3
2015-09-04 12:15;227,75
2015-09-04 12:30;222,9
2015-09-04 12:45;225,2
2015-09-04 13:00;220,5
2015-09-04 13:15;228,5
2015-09-04 13:30;230,2
2015-09-04 13:45;227,55
2015-09-04 14:00;223,2
2015-09-04 14:15;225,45
2015-09-04 14:30;226,4
2015-09-04 14:45;222,05
2015-09-04 15:00;220,05
2015-09-04 15:15;213,7
2015-09-04 15:30;209,65
2015-09-04 15:45;202,2
2015-09-04 16:00;201,55
2015-09-04 16:15;192,55
2015-09-04 16:30;196,4
2015-09-04 16:45;186
2015-09-04 17:00;172,3
2015-09-04 17:15;165,15
2015-09-04 17:30;158,45
2015-09-04 17:45;152,65
2015-09-04 18:00;151
2015-09-04 18:15;150,05
2015-09-04 18:30;143,1
2015-09-04 18:45;140,7
2015-09-04 19:00;139,1
2015-09-04 19:15;131,7
2015-09-04 19:30;123,6
2015-09-04 19:45;119,9
2015-09-04 20:00;117,9
2015-09-04 20:15;119,45
2015-09-04 20:30;121,6
2015-09-04 20:45;104,55
2015-09-04 21:00;99,8
2015-09-04 21:15;94,9
2015-09-04 21:30;93,4
2015-09-04 21:45;92,9
2015-09-04 22:00;87,9
2015-09-04 22:15;86,6
2015-09-04 22:30;88,3
2015-09-04 22:45;87,2
2015-09-04 23:00;86,3
2015-09-04 23:15;89,85
2015-09-04 23:30;91,1
2015-09-04 23:45;96
2015-09-05 00:00;95,25
2015-09-05 00:15;83,3
2015-09-05 00:30;83,2
2015-09-05 00:45;82,1
2015-09-05 01:00;80,7
2015-09-05 01:15;81
2015-09-05 01:30;80,55
2015-09-05 01:45;81,25
2015-09-05 02:00;80,7
2015-09-05 02:15;81,9
2015-09-05 02:30;80,2
2015-09-05 02:45;78,55
2015-09-05 03:00;79,7
2015-09-05 03:15;79,25
2015-09-05 03:30;81,15
2015-09-05 03:45;79,4
2015-09-05 04:00;80,75
2015-09-05 04:15;79,05
2015-09-05 04:30;78,75
2015-09-05 04:45;78,3
2015-09-05 05:00;77,3
2015-09-05 05:15;78,9
2015-09-05 05:30;76,95
2015-09-05 05:45;78,1
2015-09-05 06:00;80,4
2015-09-05 06:15;79,2
2015-09-05 06:30;83
2015-09-05 06:45;83,65
2015-09-05 07:00;82,4
2015-09-05 07:15;77,8
2015-09-05 07:30;77,35
2015-09-05 07:45;117,9
2015-09-05 08:00;112,15
2015-09-05 08:15;105,35
2015-09-05 08:30;107,1
2015-09-05 08:45;107,15
2015-09-05 09:00;110,45
2015-09-05 09:15;109,45
2015-09-05 09:30;112,5
2015-09-05 09:45;99,2
2015-09-05 10:00;98,4
2015-09-05 10:15;99,85
2015-09-05 10:30;98,45
2015-09-05 10:45;103,6
2015-09-05 11:00;109,25
2015-09-05 11:15;109,15
2015-09-05 11:30;107,4
2015-09-05 11:45;107,05
2015-09-05 12:00;107,65
2015-09-05 12:15;106,15
2015-09-05 12:30;105,8
2015-09-05 12:45;99,6
2015-09-05 13:00;108,25
2015-09-05 13:15;107,1
2015-09-05 13:30;106,05
2015-09-05 13:45;106,4
2015-09-05 14:00;108,25
2015-09-05 14:15;109,1
2015-09-05 14:30;109,1
2015-09-05 14:45;107,95
2015-09-05 15:00;109,4
2015-09-05 15:15;109,55
2015-09-05 15:30;111
2015-09-05 15:45;113,4
2015-09-05 16:00;107
2015-09-05 16:15;113,45
2015-09-05 16:30;109,85
2015-09-05 16:45;112,75
2015-09-05 17:00;115,6
2015-09-05 17:15;113,7
2015-09-05 17:30;116,7
2015-09-05 17:45;112,6
2015-09-05 18:00;108,45
2015-09-05 18:15;107,3
2015-09-05 18:30;111,15
2015-09-05 18:45;104,55
2015-09-05 19:00;102,7
2015-09-05 19:15;98,6
2015-09-05 19:30;97,5
2015-09-05 19:45;97,6
2015-09-05 20:00;96,8
2015-09-05 20:15;104,1
2015-09-05 20:30;100,6
2015-09-05 20:45;96,8
2015-09-05 21:00;99,65
2015-09-05 21:15;101,7
2015-09-05 21:30;95,75
2015-09-05 21:45;91,2
2015-09-05 22:00;87,7
2015-09-05 22:15;86,35
2015-09-05 22:30;87,8
2015-09-05 22:45;86,35
2015-09-05 23:00;84,8
2015-09-05 23:15;87,35
2015-09-05 23:30;82,85
2015-09-05 23:45;86,75
2015-09-06 00:00;90
2015-09-06 00:15;78,05
2015-09-06 00:30;79,1
2015-09-06 00:45;77,95
2015-09-06 01:00;76,55
2015-09-06 01:15;77,75
2015-09-06 01:30;77,45
2015-09-06 01:45;79,15
2015-09-06 02:00;76,8
2015-09-06 02:15;77,1
2015-09-06 02:30;75,75
2015-09-06 02:45;73,75
2015-09-06 03:00;73,9
2015-09-06 03:15;72,6
2015-09-06 03:30;73,85
2015-09-06 03:45;74,1
2015-09-06 04:00;74,8
2015-09-06 04:15;73,5
2015-09-06 04:30;74,5
2015-09-06 04:45;75,2
2015-09-06 05:00;74,45
2015-09-06 05:15;73,45
2015-09-06 05:30;73,8
2015-09-06 05:45;72,4
2015-09-06 06:00;75,2
2015-09-06 06:15;83,1
2015-09-06 06:30;84,25
2015-09-06 06:45;85,2
2015-09-06 07:00;78,1
2015-09-06 07:15;76,75
2015-09-06 07:30;78,65
2015-09-06 07:45;77,85
2015-09-06 08:00;77,5
2015-09-06 08:15;76,7
2015-09-06 08:30;74,1
2015-09-06 08:45;74
2015-09-06 09:00;70,7
2015-09-06 09:15;72,45
2015-09-06 09:30;77,2
2015-09-06 09:45;76,25
2015-09-06 10:00;78,7
2015-09-06 10:15;81,6
2015-09-06 10:30;83,15
2015-09-06 10:45;89,3
2015-09-06 11:00;86,9
2015-09-06 11:15;91
2015-09-06 11:30;88,55
2015-09-06 11:45;82,75
2015-09-06 12:00;49,25
2015-09-06 12:15;84,3
2015-09-06 12:30;81,7
2015-09-06 12:45;80,1
2015-09-06 13:00;80,95
2015-09-06 13:15;83,05
2015-09-06 13:30;82,65
2015-09-06 13:45;82,3
2015-09-06 14:00;83,35
2015-09-06 14:15;84,3
2015-09-06 14:30;82,4
2015-09-06 14:45;83
2015-09-06 15:00;80,15
2015-09-06 15:15;83,7
2015-09-06 15:30;82,25
2015-09-06 15:45;81,15
2015-09-06 16:00;82,45
2015-09-06 16:15;84,25
2015-09-06 16:30;81,55
2015-09-06 16:45;80
2015-09-06 17:00;84,9
2015-09-06 17:15;84,2
2015-09-06 17:30;87,4
2015-09-06 17:45;85,55
2015-09-06 18:00;85,2
2015-09-06 18:15;83,15
2015-09-06 18:30;85,3
2015-09-06 18:45;80,05
2015-09-06 19:00;81,05
2015-09-06 19:15;83,15
2015-09-06 19:30;80,4
2015-09-06 19:45;79,65
2015-09-06 20:00;81,95
2015-09-06 20:15;88,35
2015-09-06 20:30;88,5
2015-09-06 20:45;90,75
2015-09-06 21:00;89,15
2015-09-06 21:15;86,7
2015-09-06 21:30;87,2
2015-09-06 21:45;85,95
2015-09-06 22:00;82,7
2015-09-06 22:15;83,85
2015-09-06 22:30;86,2
2015-09-06 22:45;86,35
2015-09-06 23:00;81,85
2015-09-06 23:15;81,3
2015-09-06 23:30;80,95
2015-09-06 23:45;86,25

